Location: Newark
(34.4697°S, 57.8467°W)
Time: 00:39:27
(UTC+00:00)

N. Korean satellite - Pass Details

Date: 24 July 2019
Orbit: 457 x 507 km, 97.2° (Epoch: 20 August)

Event Time Altitude Azimuth Distance (km) Brightness Sun altitude
Rises 09:26:05 0° 1° (N) 2,587 10.4 -17.5°
Reaches altitude 10° 09:28:13 10° 355° (N) 1,707 9.4 -17.0°
Maximum altitude 09:31:47 48° 279° (W) 662 6.8 -16.3°
Enters shadow 09:33:39 25° 216° (SW) 1,057 7.8 -15.9°
